Dayton Wright, OH

1:39 AM EDT on July 21, 2017 (GMT -0400)
Dayton-Wright Brothers

Weather History for KMGY - January, 2013

Change the Weather History Date:

Monday, January 7, 2013

  Actual Average (KFFO) Record (KFFO)
Temperature  
Mean Temperature 28 °F -  
Max Temperature 36 °F 36 °F 66 °F (2008)
Min Temperature 19 °F 21 °F -8 °F (2014)
Degree Days  
Heating Degree Days 38    
Moisture  
Dew Point 21 °F    
Average Humidity 82    
Maximum Humidity 100    
Minimum Humidity 62    
Precipitation  
Precipitation 0.00 in - - ()
Sea Level Pressure  
Sea Level Pressure 30.39 in    
Wind  
Wind Speed 4 mph (South)    
Max Wind Speed 10 mph    
Max Gust Speed -    
Visibility 6 miles    
Events      
Averages and records for this station are not official NWS values.
T = Trace of Precipitation, MM = Missing Value Source: NWS Daily Summary

Daily Weather History Graph

Daily Weather History Graph

Search for Another Location

Airport or City:

Trip Planner

Search our weather history database for the weather conditions in past years. The results will help you decide how hot, cold, wet, or windy it might be!

Date:

Astronomy

Jan. 07, 2013 Rise Set
Actual Time 7:57 AM EST 5:29 PM EST
Civil Twilight 7:27 AM EST 5:59 PM EST
Nautical Twilight 6:54 AM EST 6:32 PM EST
Astronomical Twilight 6:21 AM EST 7:05 PM EST
Moon 3:20 AM EST (1/7) 1:39 PM EST (1/7)
Length of Visible Light 10h 31m
Length of Day
9h 31m
Waning Crescent, 23% of the Moon is Illuminated
Jan 7
Waning Crescent
Jan 11
New
Jan 18
First Quarter
Jan 26
Full
Feb 3
Last Quarter

Hourly Weather History & Observations

Time (EST) Temp. Windchill Dew Point Humidity Pressure Visibility Wind Dir Wind Speed Gust Speed Precip Events Conditions
12:53 AM 27.0 °F 20.5 °F 21.9 °F 81% 30.36 in 6.0 mi West 5.8 mph - N/A   Haze
1:53 AM 27.0 °F - 21.9 °F 81% 30.36 in 6.0 mi Calm Calm - N/A   Haze
2:53 AM 23.0 °F - 19.9 °F 88% 30.38 in 5.0 mi Calm Calm - N/A   Scattered Clouds
3:53 AM 21.9 °F 17.2 °F 19.0 °F 89% 30.40 in 4.0 mi South 3.5 mph - N/A   Clear
4:53 AM 21.9 °F - 19.9 °F 92% 30.40 in 3.0 mi Calm Calm - N/A   Clear
5:53 AM 19.9 °F 14.9 °F 18.0 °F 92% 30.42 in 3.0 mi SSW 3.5 mph - N/A   Clear
6:17 AM 21.2 °F - 19.4 °F 93% 30.40 in 2.5 mi Calm Calm - N/A   Clear
6:40 AM 21.2 °F - 19.4 °F 93% 30.40 in 3.0 mi Calm Calm - N/A   Clear
6:53 AM 21.0 °F - 19.0 °F 92% 30.45 in 2.5 mi Calm Calm - N/A   Clear
7:53 AM 19.9 °F - 18.0 °F 92% 30.47 in 2.0 mi Calm Calm - N/A   Clear
8:02 AM 19.4 °F - 17.6 °F 93% 30.43 in 1.5 mi North - - N/A   Clear
8:53 AM 21.0 °F 14.6 °F 21.0 °F 100% 30.48 in 1.5 mi South 4.6 mph - N/A   Clear
9:15 AM 21.2 °F 13.6 °F 19.4 °F 93% 30.45 in 2.0 mi South 5.8 mph - N/A   Clear
9:53 AM 23.0 °F 17.0 °F 21.9 °F 96% 30.49 in 2.5 mi South 4.6 mph - N/A   Clear
10:16 AM 24.8 °F 17.9 °F 21.2 °F 86% 30.45 in 3.0 mi South 5.8 mph - N/A   Clear
10:53 AM 27.0 °F 23.0 °F 23.0 °F 85% 30.48 in 4.0 mi South 3.5 mph - N/A   Clear
11:53 AM 30.9 °F 22.8 °F 24.1 °F 76% 30.44 in 7.0 mi South 9.2 mph - N/A   Clear
12:53 PM 33.1 °F 25.5 °F 25.0 °F 72% 30.41 in 9.0 mi South 9.2 mph - N/A   Clear
2:53 PM 36.0 °F 31.1 °F 24.1 °F 62% 30.37 in 10.0 mi SSW 5.8 mph - N/A   Clear
3:53 PM 36.0 °F 30.3 °F 24.1 °F 62% 30.37 in 10.0 mi SW 6.9 mph - N/A   Clear
4:53 PM 36.0 °F 29.0 °F 24.1 °F 62% 30.34 in 10.0 mi South 9.2 mph - N/A   Clear
5:53 PM 34.0 °F 28.8 °F 24.1 °F 67% 30.33 in 10.0 mi South 5.8 mph - N/A   Clear
6:53 PM 33.1 °F 24.9 °F 23.0 °F 66% 30.30 in 10.0 mi SSE 10.4 mph - N/A   Clear
7:53 PM 32.0 °F 23.6 °F 23.0 °F 69% 30.30 in 10.0 mi South 10.4 mph - N/A   Clear
8:53 PM 30.0 °F 24.1 °F 21.9 °F 72% 30.30 in 10.0 mi South 5.8 mph - N/A   Clear
9:53 PM 30.0 °F 23.2 °F 21.9 °F 72% 30.27 in 10.0 mi South 6.9 mph - N/A   Clear
10:53 PM 28.0 °F - 21.9 °F 78% 30.27 in 9.0 mi Calm Calm - N/A   Clear
11:53 PM 28.0 °F 22.8 °F 21.9 °F 78% 30.27 in 9.0 mi South 4.6 mph - N/A   Clear